Flag for Philippines Weather past 2 weeks in Mabalacat, Philippines

Now
91 °F

Partly sunny.


Feels Like: 89 °F
Forecast: 70 / 92 °F
Wind: 8 mph from East

Location: Clarkfield Pampanga International Airport

Current Time: Mar 4, 2015 at 5:16:31 PM

Latest Report: Mar 4, 2015 at 4:00 PM


Visibility: N/A

Pressure: 29.86 "Hg

Humidity: 30%

Dew point: 55 °F

Location of MabalacatLocation

Historic Weather in Mabalacat — Graph

°F

Mabalacat temperature yesterday

Maximum temperature yesterday: 88 °F (at 2:00 PM)
Minimum temperature yesterday: 70 °F (at 4:00 AM)
Average temperature yesterday: 79 °F

Past Weeks' High & Low Weather Summary

 TemperatureHumidityPressure
High91 °F (Mar 4, 2:00 PM)94% (Feb 18, 6:00 AM)30.07 "Hg (Feb 18, 6:00 AM)
Low68 °F (Feb 23, 4:00 AM)26% (Mar 4, 2:00 PM)29.83 "Hg (Feb 17, 4:00 PM)
Average78 °F65%29.96 "Hg
* Reported Feb 17 4:00 PM — Mar 4 4:00 PM, Mabalacat, Weather by CustomWeather, © 2015

Note: Actual official high and low records may vary slightly from our data, if they occured in-between our weather recording intervals... More about our weather records

Advertising

Mabalacat weather history for previous 24 hours

 ConditionsComfort  
Time TempWeatherWind HumidityBarometerVisibility
4:00 PM
Wed, Mar 4
91 °FPartly sunny.8 mph30%29.86 "HgN/A
3:00 PM91 °FPartly sunny.6 mph32%29.86 "HgN/A
2:00 PM91 °FPartly sunny.5 mph26%29.89 "HgN/A
1:00 PM90 °FPartly sunny.7 mph33%29.92 "HgN/A
12:00 PM86 °FScattered clouds.5 mph46%29.95 "HgN/A
11:00 AM86 °FScattered clouds.5 mph49%29.98 "HgN/A
10:00 AM82 °FScattered clouds.3 mph55%30.01 "HgN/A
9:00 AM79 °FScattered clouds.5 mph65%29.98 "HgN/A
8:00 AM75 °FScattered clouds.6 mph74%29.98 "HgN/A
7:00 AM70 °FScattered clouds.5 mph83%29.95 "HgN/A
6:00 AM68 °FPassing clouds.3 mph88%29.92 "HgN/A
5:00 AM70 °FPassing clouds.2 mph83%29.89 "HgN/A
4:00 AM70 °FPassing clouds.3 mph88%29.89 "HgN/A
3:00 AM70 °FPassing clouds.3 mph88%29.89 "HgN/A
2:00 AM72 °FPassing clouds.3 mph83%29.89 "HgN/A
1:00 AM73 °FPassing clouds.1 mph83%29.92 "HgN/A
12:00 AM73 °FPassing clouds.2 mph83%29.92 "HgN/A
11:00 PM
Tue, Mar 3
75 °FPassing clouds.3 mph83%29.92 "HgN/A
10:00 PM77 °FPassing clouds.7 mph69%29.92 "HgN/A
9:00 PM77 °FPassing clouds.7 mph61%29.92 "HgN/A
8:00 PM81 °FPassing clouds.6 mph58%29.89 "HgN/A
7:00 PM81 °FPassing clouds.5 mph58%29.86 "HgN/A
6:00 PM84 °FScattered clouds.6 mph51%29.83 "HgN/A
5:00 PM88 °FScattered clouds.6 mph38%29.83 "HgN/A
Weather by CustomWeather, © 2015

See weather overviewHow to use our weather pages